TimeCST,TemperatureF,Dew PointF,Humidity,Sea Level PressureIn,VisibilityMPH,Wind Direction,Wind SpeedMPH,Gust SpeedMPH,PrecipitationIn,Events,Conditions,WindDirDegrees,DateUTC
12:19 AM,30.2,26.6,86,30.04,8.0,East,11.5,-,0.00,,Overcast,100,2013-02-21 06:19:00
12:37 AM,30.2,26.6,86,30.02,10.0,East,12.7,-,0.01,Rain,Light Freezing Rain,100,2013-02-21 06:37:00
12:53 AM,30.0,25.0,82,30.05,10.0,East,13.8,-,0.01,Rain,Light Freezing Rain,100,2013-02-21 06:53:00
1:00 AM,28.4,24.8,86,30.01,10.0,East,13.8,-,0.00,,Overcast,100,2013-02-21 07:00:00
1:11 AM,30.2,26.6,86,30.00,10.0,East,12.7,-,0.00,Rain,Light Freezing Rain,90,2013-02-21 07:11:00
1:36 AM,28.4,26.6,93,29.99,10.0,East,12.7,-,0.00,,Overcast,100,2013-02-21 07:36:00
1:50 AM,30.2,26.6,86,29.99,5.0,East,15.0,-,0.02,Rain,Light Freezing Rain,90,2013-02-21 07:50:00
1:53 AM,30.0,27.0,88,30.02,5.0,East,13.8,-,0.02,Rain,Light Freezing Rain,90,2013-02-21 07:53:00
2:53 AM,28.9,26.1,89,29.96,10.0,East,13.8,23.0,0.01,Rain,Light Freezing Rain,80,2013-02-21 08:53:00
3:03 AM,28.4,26.6,93,29.93,10.0,East,16.1,21.9,0.00,,Overcast,90,2013-02-21 09:03:00
3:26 AM,28.4,26.6,93,29.89,9.0,East,16.1,24.2,0.01,Rain,Light Freezing Rain,90,2013-02-21 09:26:00
4:29 AM,28.4,26.6,93,29.84,7.0,East,16.1,24.2,0.01,Rain,Light Freezing Rain,100,2013-02-21 10:29:00
4:53 AM,28.9,26.1,89,29.83,10.0,East,23.0,29.9,0.01,Rain,Light Freezing Rain,100,2013-02-21 10:53:00
5:04 AM,28.4,26.6,93,29.83,10.0,East,17.3,29.9,0.00,,Overcast,100,2013-02-21 11:04:00
5:11 AM,30.2,26.6,86,29.82,9.0,East,17.3,24.2,0.01,Thunderstorm,Overcast,100,2013-02-21 11:11:00
5:27 AM,30.2,28.4,93,29.81,9.0,East,19.6,25.3,0.04,,Overcast,90,2013-02-21 11:27:00
5:53 AM,30.0,28.0,92,29.81,10.0,ESE,19.6,31.1,0.06,Rain,Light Freezing Rain,110,2013-02-21 11:53:00
6:07 AM,30.2,28.4,93,29.76,10.0,ESE,23.0,28.8,0.00,,Overcast,110,2013-02-21 12:07:00
6:16 AM,30.2,28.4,93,29.75,10.0,ESE,17.3,34.5,0.00,,Overcast,110,2013-02-21 12:16:00
6:53 AM,30.9,28.0,89,29.79,10.0,ESE,16.1,21.9,0.00,,Overcast,110,2013-02-21 12:53:00
7:53 AM,32.0,28.9,88,29.75,10.0,East,11.5,23.0,N/A,,Overcast,100,2013-02-21 13:53:00
8:53 AM,33.1,30.0,89,29.79,10.0,NNW,8.1,-,0.05,,Overcast,330,2013-02-21 14:53:00
9:16 AM,32.0,30.2,93,29.79,1.8,North,8.1,-,0.10,,Overcast,360,2013-02-21 15:16:00
9:32 AM,30.2,30.2,100,29.80,2.0,ENE,9.2,-,0.22,Rain,Light Freezing Rain,60,2013-02-21 15:32:00
9:38 AM,32.0,30.2,93,29.79,3.0,NE,6.9,-,0.22,Rain,Light Freezing Rain,40,2013-02-21 15:38:00
10:01 AM,32.0,30.2,93,29.81,3.0,ENE,6.9,-,0.25,Rain,Light Freezing Rain,60,2013-02-21 16:01:00
10:25 AM,32.0,30.2,93,29.85,6.0,Calm,Calm,-,0.25,Rain,Light Freezing Rain,0,2013-02-21 16:25:00
10:44 AM,32.0,30.2,93,29.80,1.8,East,9.2,-,0.27,Rain,Light Freezing Rain,80,2013-02-21 16:44:00
10:49 AM,32.0,30.2,93,29.78,2.0,East,12.7,-,0.27,Rain,Light Freezing Rain,90,2013-02-21 16:49:00
10:53 AM,32.0,30.9,96,29.81,2.5,East,11.5,-,0.27,Rain,Light Freezing Rain,90,2013-02-21 16:53:00
11:06 AM,32.0,32.0,100,29.80,2.5,East,6.9,-,0.00,Rain,Light Freezing Rain,100,2013-02-21 17:06:00
11:31 AM,32.0,32.0,100,29.72,1.5,ENE,12.7,-,0.00,,Overcast,70,2013-02-21 17:31:00
11:40 AM,32.0,32.0,100,29.81,2.0,ESE,8.1,-,0.01,,Overcast,120,2013-02-21 17:40:00
11:48 AM,32.0,32.0,100,29.78,3.0,East,9.2,-,0.01,Rain,Light Freezing Rain,100,2013-02-21 17:48:00
11:53 AM,32.0,32.0,100,29.80,3.0,East,9.2,-,0.01,Rain,Light Freezing Rain,100,2013-02-21 17:53:00
12:29 PM,32.0,32.0,100,29.74,2.0,East,8.1,-,0.01,Rain,Light Freezing Rain,100,2013-02-21 18:29:00
12:53 PM,32.0,32.0,100,29.73,2.5,East,11.5,-,0.01,Rain,Light Freezing Rain,100,2013-02-21 18:53:00
1:00 PM,32.0,32.0,100,29.71,3.0,East,12.7,-,0.00,Rain,Light Freezing Rain,100,2013-02-21 19:00:00
1:53 PM,33.1,33.1,100,29.70,4.0,ESE,10.4,-,0.00,Rain,Light Freezing Rain,110,2013-02-21 19:53:00
2:24 PM,33.8,33.8,100,29.67,10.0,ESE,9.2,-,0.00,Rain,Light Freezing Rain,120,2013-02-21 20:24:00
2:53 PM,33.1,33.1,100,29.70,5.0,East,8.1,-,0.00,Rain,Light Freezing Rain,100,2013-02-21 20:53:00
3:19 PM,33.8,33.8,100,29.67,2.0,ESE,9.2,-,0.00,Rain,Light Freezing Rain,110,2013-02-21 21:19:00
3:31 PM,33.8,33.8,100,29.67,2.0,ESE,9.2,-,0.00,Rain,Light Freezing Rain,110,2013-02-21 21:31:00
3:53 PM,33.1,33.1,100,29.71,3.0,ESE,9.2,-,0.00,Rain,Light Freezing Rain,120,2013-02-21 21:53:00
4:01 PM,33.8,33.8,100,29.69,2.5,ESE,8.1,-,0.00,,Overcast,120,2013-02-21 22:01:00
4:11 PM,33.8,33.8,100,29.69,1.2,SE,8.1,-,0.01,,Overcast,130,2013-02-21 22:11:00
4:53 PM,34.0,34.0,100,29.74,1.2,South,5.8,-,0.01,,Overcast,170,2013-02-21 22:53:00
5:16 PM,35.6,35.6,100,29.72,3.0,South,5.8,-,0.00,,Overcast,180,2013-02-21 23:16:00
5:43 PM,35.6,35.6,100,29.73,2.5,South,6.9,-,0.00,,Overcast,190,2013-02-21 23:43:00
5:53 PM,35.1,35.1,100,29.75,3.0,SSW,9.2,-,0.00,,Overcast,200,2013-02-21 23:53:00
6:53 PM,34.0,34.0,100,29.78,5.0,SSW,5.8,-,N/A,,Overcast,200,2013-02-22 00:53:00
7:40 PM,35.6,35.6,100,29.76,8.0,SSW,5.8,-,N/A,,Overcast,210,2013-02-22 01:40:00
7:53 PM,35.1,35.1,100,29.78,10.0,SSW,6.9,-,N/A,,Overcast,210,2013-02-22 01:53:00
8:53 PM,35.1,35.1,100,29.81,9.0,SW,9.2,-,N/A,,Overcast,220,2013-02-22 02:53:00
9:53 PM,35.1,34.0,96,29.84,10.0,WSW,12.7,24.2,N/A,,Overcast,250,2013-02-22 03:53:00
10:30 PM,33.8,33.8,100,29.83,10.0,West,16.1,23.0,N/A,,Overcast,260,2013-02-22 04:30:00
10:53 PM,34.0,33.1,96,29.86,10.0,WSW,17.3,21.9,N/A,,Overcast,250,2013-02-22 04:53:00
11:53 PM,34.0,32.0,92,29.87,10.0,West,13.8,-,N/A,,Overcast,260,2013-02-22 05:53:00